Date,TemperatureHighF,TemperatureAvgF,TemperatureLowF,DewpointHighF,DewpointAvgF,DewpointLowF,HumidityHigh,HumidityAvg,HumidityLow,PressureMaxIn,PressureMinIn,WindSpeedMaxMPH,WindSpeedAvgMPH,GustSpeedMaxMPH,PrecipitationSumIn
2013-1-1,52.8,48.6,44.9,50.2,42.5,28.9,95,80,52,30.12,29.94,15,1,15,0.13
2013-1-2,51.1,46.1,40.5,50.0,42.8,37.4,97,88,69,30.19,29.90,11,1,11,0.27
2013-1-3,44.6,40.6,33.4,38.0,35.7,30.3,94,83,62,30.27,30.13,6,0,6,0.01
2013-1-4,51.4,37.9,26.9,30.5,26.4,21.3,92,67,32,30.33,30.20,9,0,9,0.01
2013-1-5,50.4,38.8,28.1,28.3,23.8,20.3,77,56,34,30.41,30.28,6,0,6,0.00
2013-1-6,47.6,43.0,36.9,40.9,35.7,27.0,91,76,56,30.28,30.06,7,1,7,0.00
2013-1-7,53.1,40.8,30.0,35.1,31.4,28.0,94,72,42,30.44,30.18,11,0,11,0.01
2013-1-8,57.2,43.1,31.5,41.9,35.4,28.1,90,76,51,30.47,30.36,5,0,5,0.00
2013-1-9,68.6,52.9,37.0,51.4,44.4,34.6,93,75,50,30.44,30.35,7,0,7,0.00
2013-1-10,64.8,55.6,49.4,50.5,45.7,38.2,93,71,44,30.52,30.41,11,0,11,0.00
2013-1-11,52.5,48.6,42.5,51.4,43.9,31.9,97,85,51,30.42,30.15,6,0,6,0.29
2013-1-12,75.3,59.1,48.8,62.5,55.4,48.3,99,88,62,30.17,30.09,7,0,7,0.00
2013-1-13,75.6,63.8,52.8,60.7,57.3,51.5,98,81,55,30.14,30.05,13,2,13,0.01
2013-1-14,74.7,66.5,58.4,63.0,59.0,55.1,89,77,64,30.15,30.07,16,2,16,0.00
2013-1-15,66.0,50.3,46.8,59.7,47.7,45.1,96,91,80,30.20,30.04,12,1,12,0.01
2013-1-16,49.9,47.5,45.2,49.6,47.0,44.7,99,98,96,30.06,29.98,8,0,8,0.24
2013-1-17,51.4,47.7,35.0,51.1,47.2,33.7,99,98,95,30.15,29.84,22,2,22,0.73
2013-1-18,47.4,37.5,30.6,34.5,28.7,20.9,97,74,37,30.54,30.13,10,1,12,0.08
2013-1-19,54.7,41.0,25.3,35.7,27.2,22.0,90,61,30,30.52,30.17,9,1,10,0.00
2013-1-20,64.7,49.6,39.5,35.2,32.7,29.3,80,55,28,30.17,29.98,9,0,9,0.00
2013-1-21,60.4,47.3,30.0,34.8,28.3,20.3,89,50,28,30.09,29.88,10,1,10,0.00
2013-1-22,40.5,35.0,29.7,21.7,13.9,-0.3,54,43,19,30.22,29.97,14,1,14,0.00
2013-1-23,41.2,35.2,19.1,16.9,10.1,0.6,73,36,24,30.39,30.08,12,1,12,0.00
2013-1-24,40.8,33.1,24.7,26.6,14.6,0.4,76,49,23,30.51,29.98,23,2,23,0.00
2013-1-25,26.7,23.9,19.7,24.2,14.9,4.4,90,70,41,30.54,30.14,5,0,5,0.00
2013-1-26,38.8,29.3,22.5,34.4,26.8,19.8,94,90,79,30.41,30.12,6,0,6,0.16
2013-1-27,38.9,32.6,27.8,29.3,27.0,22.8,96,81,57,30.60,30.40,8,0,8,0.09
2013-1-28,53.3,42.8,32.1,46.9,36.2,28.2,91,78,66,30.52,30.24,10,1,10,0.04
2013-1-29,74.0,59.4,45.1,57.2,50.7,42.6,94,75,49,30.25,30.06,16,1,16,0.00
2013-1-30,72.3,67.4,62.1,63.6,61.2,57.2,91,81,67,30.07,29.41,33,7,33,0.15
2013-1-31,64.3,47.7,37.6,60.3,30.9,16.2,89,55,26,30.03,29.47,23,2,32,0.13